Location: Hilton Head Island
(32.2163°N, 80.7526°W)
Time: 21:39:42
(UTC-04:00)

Vanguard 2 Rocket - Pass Details

Date: 20 February 2026
Orbit: 553 x 3286 km, 32.9° (Epoch: 10 March)

Event Time Altitude Azimuth Distance (km) Brightness Sun altitude
Rises 17:13:06 0° 285° (WNW) 6,480 12.2 11.4°
Reaches altitude 10° 17:18:03 10° 283° (WNW) 5,074 11.9 10.4°
Maximum altitude 17:31:04 60° 208° (SSW) 1,755 8.8 7.8°
Drops below altitude 10° 17:38:18 10° 129° (SE) 2,932 9.2 6.4°
Sets 17:40:27 0° 125° (SE) 3,641 9.6 5.9°
